| time (UTC) | temp C | wind direction | speed KPH | gust KPH | rain 1hr cm | rain 24hr cm | rain mn cm | humidity % | barometer mb |
| 20260507030507 | 6 | 307 | 3.2 | 6.4 | 0.00 | 0.71 | 0.00 | 88 | 1013.0 |
| 20260507030020 | 7 | 345 | 3.2 | 8.0 | 0.00 | 0.74 | 0.00 | 87 | 1012.9 |
| 20260507025510 | 7 | 330 | 3.2 | 8.0 | 0.00 | 0.74 | 0.00 | 87 | 1012.9 |
| 20260507025005 | 7 | 336 | 4.8 | 11.3 | 0.00 | 0.74 | 0.00 | 87 | 1012.9 |
| 20260507024529 | 7 | 346 | 4.8 | 11.3 | 0.00 | 0.76 | 0.00 | 87 | 1012.9 |
| 20260507024004 | 7 | 329 | 4.8 | 9.7 | 0.00 | 0.76 | 0.00 | 87 | 1012.9 |
| 20260507023503 | 7 | 323 | 4.8 | 9.7 | 0.00 | 0.79 | 0.00 | 87 | 1012.9 |
| 20260507022508 | 7 | 323 | 4.8 | 12.9 | 0.00 | 0.81 | 0.00 | 87 | 1012.8 |
| 20260507022010 | 7 | 304 | 8.0 | 12.9 | 0.00 | 0.84 | 0.00 | 87 | 1012.8 |
| 20260507020507 | 7 | 352 | 4.8 | 11.3 | 0.00 | 0.86 | 0.00 | 87 | 1012.7 |
| 20260507015511 | 7 | 352 | 4.8 | 9.7 | 0.00 | 0.91 | 0.00 | 87 | 1012.7 |
| 20260507014532 | 7 | 325 | 6.4 | 12.9 | 0.00 | 0.94 | 0.00 | 87 | 1012.5 |
| 20260507014007 | 7 | 352 | 4.8 | 12.9 | 0.00 | 0.97 | 0.00 | 87 | 1012.5 |
| 20260507013507 | 7 | 9 | 6.4 | 12.9 | 0.00 | 1.02 | 0.00 | 87 | 1012.6 |
| 20260507013019 | 7 | 350 | 6.4 | 11.3 | 0.00 | 1.02 | 0.00 | 86 | 1012.6 |
| 20260507012512 | 7 | 350 | 4.8 | 12.9 | 0.00 | 1.04 | 0.00 | 87 | 1012.6 |
| 20260507012006 | 7 | 334 | 6.4 | 12.9 | 0.00 | 1.07 | 0.00 | 86 | 1012.5 |
| 20260507011526 | 7 | 351 | 4.8 | 12.9 | 0.00 | 1.07 | 0.00 | 86 | 1012.5 |
| 20260507011007 | 7 | 307 | 6.4 | 12.9 | 0.00 | 1.09 | 0.00 | 86 | 1012.4 |
| 20260507010506 | 7 | 346 | 4.8 | 12.9 | 0.00 | 1.12 | 0.00 | 86 | 1012.4 |
| 20260507010019 | 7 | 5 | 4.8 | 8.0 | 0.00 | 1.12 | 0.00 | 86 | 1012.4 |
| 20260507005507 | 7 | 351 | 4.8 | 8.0 | 0.00 | 1.14 | 0.00 | 86 | 1012.4 |
| 20260507003022 | 7 | 321 | 8.0 | 14.5 | 0.00 | 1.22 | 0.00 | 86 | 1012.3 |
| 20260507002507 | 8 | 360 | 1.6 | 9.7 | 0.00 | 1.22 | 0.00 | 86 | 1012.2 |
| 20260507002012 | 8 | 309 | 4.8 | 9.7 | 0.00 | 1.24 | 0.00 | 85 | 1012.2 |
| 20260507001525 | 8 | 325 | 3.2 | 8.0 | 0.00 | 1.27 | 0.00 | 85 | 1012.2 |
| 20260507001008 | 8 | 343 | 3.2 | 11.3 | 0.00 | 1.27 | 0.00 | 85 | 1012.2 |
| 20260507000015 | 8 | 23 | 4.8 | 12.9 | 0.00 | 1.30 | 0.00 | 85 | 1012.1 |
| 20260506234504 | 8 | 352 | 6.4 | 12.9 | 0.00 | 1.30 | 0.00 | 86 | 1012.2 |
| 20260506234003 | 8 | 312 | 4.8 | 9.7 | 0.00 | 1.32 | 0.00 | 86 | 1012.2 |
| 20260506233502 | 8 | 334 | 3.2 | 9.7 | 0.00 | 1.32 | 0.00 | 86 | 1012.2 |
| 20260506233004 | 8 | 13 | 6.4 | 12.9 | 0.00 | 1.35 | 0.00 | 86 | 1012.2 |
| 20260506232505 | 8 | 300 | 3.2 | 12.9 | 0.00 | 1.35 | 0.00 | 86 | 1012.2 |
| 20260506232004 | 8 | 346 | 4.8 | 12.9 | 0.00 | 1.37 | 0.00 | 86 | 1012.1 |
| 20260506231508 | 8 | 352 | 4.8 | 8.0 | 0.00 | 1.37 | 0.00 | 86 | 1012.0 |
| 20260506231005 | 8 | 333 | 4.8 | 8.0 | 0.00 | 1.40 | 0.00 | 86 | 1012.1 |
| 20260506230503 | 8 | 303 | 1.6 | 6.4 | 0.00 | 1.40 | 0.00 | 85 | 1012.0 |
| 20260506230015 | 8 | 305 | 1.6 | 6.4 | 0.00 | 1.40 | 0.00 | 85 | 1012.0 |
| 20260506225507 | 8 | 298 | 4.8 | 6.4 | 0.00 | 1.40 | 0.00 | 85 | 1012.0 |
| 20260506225004 | 8 | 319 | 1.6 | 4.8 | 0.00 | 1.40 | 0.00 | 85 | 1012.0 |
| 20260506224511 | 8 | 300 | 1.6 | 4.8 | 0.00 | 1.40 | 0.00 | 85 | 1012.0 |
| 20260506224007 | 8 | 282 | 1.6 | 4.8 | 0.00 | 1.40 | 0.00 | 85 | 1011.9 |
| 20260506223006 | 8 | 277 | 1.6 | 3.2 | 0.00 | 1.42 | 0.00 | 85 | 1012.0 |
| 20260506215506 | 8 | 313 | 1.6 | 3.2 | 0.00 | 1.55 | 1.55 | 85 | 1011.9 |
| 20260506214518 | 8 | 292 | 1.6 | 4.8 | 0.00 | 1.57 | 1.55 | 85 | 1011.9 |
| 20260506214002 | 8 | 314 | 1.6 | 4.8 | 0.00 | 1.57 | 1.55 | 85 | 1011.8 |
| 20260506213506 | 8 | 328 | 3.2 | 4.8 | 0.00 | 1.57 | 1.55 | 85 | 1011.9 |
| 20260506213018 | 8 | 327 | 1.6 | 6.4 | 0.00 | 1.57 | 1.55 | 85 | 1011.8 |
| 20260506212507 | 8 | 326 | 3.2 | 6.4 | 0.00 | 1.57 | 1.55 | 85 | 1011.7 |
| 20260506212004 | 8 | 319 | 3.2 | 6.4 | 0.00 | 1.60 | 1.55 | 85 | 1011.7 |
| 20260506211510 | 8 | 313 | 3.2 | 4.8 | 0.00 | 1.60 | 1.55 | 84 | 1011.7 |
| 20260506210008 | 8 | 270 | 3.2 | 11.3 | 0.00 | 1.63 | 1.55 | 85 | 1011.6 |
| 20260506204509 | 8 | 333 | 3.2 | 8.0 | 0.00 | 1.63 | 1.55 | 85 | 1011.6 |
| 20260506202506 | 8 | 317 | 3.2 | 6.4 | 0.00 | 1.63 | 1.55 | 84 | 1011.5 |
| 20260506202010 | 8 | 304 | 3.2 | 4.8 | 0.00 | 1.63 | 1.55 | 84 | 1011.5 |
| 20260506201525 | 8 | 300 | 1.6 | 4.8 | 0.00 | 1.63 | 1.55 | 84 | 1011.5 |
| 20260506201003 | 8 | 324 | 1.6 | 3.2 | 0.00 | 1.63 | 1.55 | 84 | 1011.4 |
| 20260506200509 | 8 | 351 | 1.6 | 4.8 | 0.00 | 1.63 | 1.55 | 84 | 1011.4 |
| 20260506200018 | 8 | 352 | 3.2 | 6.4 | 0.00 | 1.63 | 1.55 | 83 | 1011.4 |
| 20260506195509 | 8 | 9 | 3.2 | 9.7 | 0.00 | 1.63 | 1.55 | 83 | 1011.3 |
| 20260506194507 | 8 | 352 | 3.2 | 6.4 | 0.00 | 1.63 | 1.55 | 83 | 1011.3 |
| 20260506193502 | 8 | 41 | 3.2 | 6.4 | 0.00 | 1.63 | 1.55 | 83 | 1011.2 |
| 20260506191510 | 8 | 360 | 3.2 | 6.4 | 0.00 | 1.63 | 1.55 | 83 | 1010.9 |
| 20260506191006 | 9 | 346 | 1.6 | 4.8 | 0.00 | 1.63 | 1.55 | 83 | 1010.9 |
| 20260506190008 | 9 | 5 | 3.2 | 4.8 | 0.00 | 1.63 | 1.55 | 83 | 1010.8 |
| 20260506185505 | 9 | 347 | 1.6 | 3.2 | 0.00 | 1.63 | 1.55 | 82 | 1010.8 |
| 20260506185011 | 9 | 33 | 0.0 | 3.2 | 0.00 | 1.63 | 1.55 | 82 | 1010.7 |
| 20260506184526 | 9 | 360 | 1.6 | 4.8 | 0.00 | 1.63 | 1.55 | 82 | 1010.8 |
| 20260506184007 | 9 | 9 | 1.6 | 4.8 | 0.00 | 1.63 | 1.55 | 82 | 1010.7 |
| 20260506183506 | 9 | 37 | 4.8 | 11.3 | 0.00 | 1.63 | 1.55 | 82 | 1010.7 |
| 20260506183011 | 9 | 20 | 3.2 | 11.3 | 0.00 | 1.63 | 1.55 | 82 | 1010.7 |
| 20260506182506 | 9 | 65 | 3.2 | 8.0 | 0.00 | 1.63 | 1.55 | 82 | 1010.6 |
| 20260506181514 | 9 | 46 | 4.8 | 9.7 | 0.00 | 1.63 | 1.55 | 82 | 1010.4 |
| 20260506181007 | 9 | 62 | 3.2 | 8.0 | 0.00 | 1.63 | 1.55 | 82 | 1010.3 |
| 20260506180506 | 9 | 69 | 1.6 | 6.4 | 0.00 | 1.63 | 1.55 | 82 | 1010.1 |
| 20260506180020 | 9 | 84 | 1.6 | 9.7 | 0.00 | 1.63 | 1.55 | 82 | 1010.1 |
| 20260506175505 | 9 | 62 | 4.8 | 11.3 | 0.00 | 1.63 | 1.55 | 82 | 1010.0 |
| 20260506174513 | 9 | 86 | 4.8 | 14.5 | 0.00 | 1.63 | 1.55 | 81 | 1010.0 |
| 20260506174012 | 9 | 92 | 8.0 | 17.7 | 0.00 | 1.63 | 1.55 | 81 | 1010.0 |
| 20260506173510 | 9 | 74 | 6.4 | 17.7 | 0.00 | 1.63 | 1.55 | 81 | 1010.0 |
| 20260506173013 | 9 | 66 | 6.4 | 17.7 | 0.00 | 1.63 | 1.55 | 81 | 1009.9 |
| 20260506172508 | 9 | 80 | 9.7 | 22.5 | 0.00 | 1.63 | 1.55 | 81 | 1009.8 |
| 20260506172011 | 9 | 17 | 9.7 | 22.5 | 0.00 | 1.63 | 1.55 | 81 | 1009.8 |
| 20260506171512 | 10 | 63 | 12.9 | 27.4 | 0.00 | 1.63 | 1.55 | 81 | 1009.7 |
| 20260506171009 | 9 | 35 | 12.9 | 22.5 | 0.00 | 1.63 | 1.55 | 81 | 1009.7 |
| 20260506170512 | 10 | 46 | 8.0 | 17.7 | 0.00 | 1.63 | 1.55 | 82 | 1009.7 |
| 20260506170018 | 9 | 31 | 8.0 | 19.3 | 0.00 | 1.63 | 1.55 | 83 | 1009.6 |
| 20260506165508 | 9 | 83 | 9.7 | 17.7 | 0.00 | 1.63 | 1.55 | 83 | 1009.6 |
| 20260506165010 | 9 | 360 | 9.7 | 14.5 | 0.00 | 1.63 | 1.55 | 83 | 1009.7 |
| 20260506164525 | 9 | 62 | 8.0 | 19.3 | 0.00 | 1.63 | 1.55 | 84 | 1009.7 |
| 20260506164008 | 9 | 75 | 11.3 | 20.9 | 0.00 | 1.63 | 1.55 | 84 | 1009.7 |
| 20260506163510 | 9 | 18 | 6.4 | 20.9 | 0.00 | 1.63 | 1.55 | 85 | 1009.6 |
| 20260506163023 | 9 | 72 | 6.4 | 19.3 | 0.00 | 1.63 | 1.55 | 85 | 1009.6 |
| 20260506162514 | 9 | 9 | 9.7 | 19.3 | 0.00 | 1.63 | 1.55 | 86 | 1009.6 |
| 20260506162012 | 9 | 45 | 8.0 | 19.3 | 0.00 | 1.63 | 1.55 | 87 | 1009.6 |
| 20260506161515 | 9 | 360 | 9.7 | 19.3 | 0.00 | 1.63 | 1.55 | 87 | 1009.6 |
| 20260506161013 | 9 | 107 | 6.4 | 16.1 | 0.00 | 1.63 | 1.55 | 87 | 1009.6 |
| 20260506160513 | 9 | 90 | 8.0 | 17.7 | 0.00 | 1.63 | 1.55 | 87 | 1009.5 |
| 20260506160015 | 9 | 67 | 6.4 | 17.7 | 0.00 | 1.63 | 1.55 | 88 | 1009.6 |
| 20260506155507 | 9 | 9 | 6.4 | 16.1 | 0.00 | 1.63 | 1.55 | 88 | 1009.6 |
| 20260506155010 | 9 | 79 | 8.0 | 12.9 | 0.00 | 1.63 | 1.55 | 88 | 1009.6 |
| 20260506154521 | 9 | 42 | 4.8 | 17.7 | 0.00 | 1.63 | 1.55 | 88 | 1009.6 |
| 20260506154009 | 9 | 15 | 6.4 | 17.7 | 0.00 | 1.63 | 1.55 | 88 | 1009.5 |
| 20260506153511 | 9 | 29 | 6.4 | 17.7 | 0.00 | 1.63 | 1.55 | 88 | 1009.5 |
| 20260506152506 | 9 | 9 | 4.8 | 12.9 | 0.00 | 1.63 | 1.55 | 88 | 1009.5 |
| 20260506152008 | 9 | 360 | 3.2 | 12.9 | 0.00 | 1.63 | 1.55 | 88 | 1009.5 |
| 20260506151523 | 9 | 360 | 6.4 | 12.9 | 0.00 | 1.63 | 1.55 | 88 | 1009.3 |
| 20260506151008 | 9 | 360 | 3.2 | 14.5 | 0.00 | 1.63 | 1.55 | 88 | 1009.4 |
| 20260506150508 | 9 | 47 | 8.0 | 14.5 | 0.00 | 1.63 | 1.55 | 88 | 1009.4 |
| 20260506150022 | 9 | 339 | 3.2 | 12.9 | 0.00 | 1.63 | 1.55 | 88 | 1009.4 |
| 20260506145514 | 9 | 9 | 3.2 | 12.9 | 0.00 | 1.63 | 1.55 | 88 | 1009.3 |
| 20260506145010 | 9 | 50 | 4.8 | 12.9 | 0.00 | 1.63 | 1.55 | 88 | 1009.3 |
| 20260506144511 | 9 | 360 | 4.8 | 11.3 | 0.00 | 1.63 | 1.55 | 88 | 1009.2 |
| 20260506144003 | 8 | 360 | 3.2 | 11.3 | 0.00 | 1.63 | 1.55 | 88 | 1009.2 |
| 20260506143509 | 9 | 343 | 6.4 | 11.3 | 0.00 | 1.63 | 1.55 | 88 | 1009.2 |
| 20260506143020 | 8 | 315 | 4.8 | 19.3 | 0.00 | 1.63 | 1.55 | 88 | 1009.2 |
| 20260506142504 | 8 | 36 | 8.0 | 17.7 | 0.00 | 1.63 | 1.55 | 89 | 1009.2 |
| 20260506142004 | 8 | 26 | 8.0 | 14.5 | 0.00 | 1.63 | 1.55 | 88 | 1009.2 |
| 20260506141506 | 8 | 48 | 4.8 | 14.5 | 0.00 | 1.63 | 1.55 | 88 | 1009.3 |
| 20260506141006 | 8 | 50 | 4.8 | 12.9 | 0.00 | 1.63 | 1.55 | 88 | 1009.2 |
| 20260506140504 | 8 | 63 | 3.2 | 16.1 | 0.00 | 1.63 | 1.55 | 89 | 1009.3 |
| 20260506140010 | 8 | 86 | 8.0 | 16.1 | 0.00 | 1.63 | 1.55 | 89 | 1009.2 |
| 20260506135504 | 8 | 32 | 3.2 | 14.5 | 0.00 | 1.63 | 1.55 | 89 | 1009.2 |
| 20260506135003 | 8 | 49 | 6.4 | 14.5 | 0.00 | 1.63 | 1.55 | 89 | 1009.1 |
| 20260506134511 | 8 | 17 | 4.8 | 16.1 | 0.00 | 1.63 | 1.55 | 89 | 1009.2 |
| 20260506134010 | 8 | 14 | 6.4 | 16.1 | 0.00 | 1.63 | 1.55 | 89 | 1009.1 |
| 20260506133509 | 8 | 360 | 6.4 | 16.1 | 0.00 | 1.63 | 1.55 | 90 | 1009.1 |
| 20260506133006 | 9 | 22 | 9.7 | 16.1 | 0.00 | 1.63 | 1.55 | 90 | 1009.1 |
| 20260506132511 | 9 | 360 | 6.4 | 16.1 | 0.00 | 1.63 | 1.55 | 90 | 1009.1 |
| 20260506132009 | 9 | 360 | 8.0 | 16.1 | 0.00 | 1.63 | 1.55 | 90 | 1009.0 |
| 20260506130503 | 9 | 36 | 6.4 | 17.7 | 0.00 | 1.63 | 1.55 | 90 | 1008.9 |
| 20260506130006 | 9 | 13 | 6.4 | 17.7 | 0.00 | 1.63 | 1.55 | 91 | 1008.9 |
| 20260506125503 | 8 | 78 | 6.4 | 14.5 | 0.00 | 1.60 | 1.52 | 91 | 1008.9 |
| 20260506125003 | 8 | 19 | 4.8 | 9.7 | 0.00 | 1.60 | 1.52 | 91 | 1008.8 |
| 20260506124004 | 8 | 329 | 3.2 | 16.1 | 0.00 | 1.60 | 1.52 | 91 | 1008.8 |
| 20260506123504 | 8 | 360 | 6.4 | 19.3 | 0.00 | 1.60 | 1.52 | 91 | 1008.8 |
| 20260506123024 | 8 | 350 | 4.8 | 19.3 | 0.00 | 1.60 | 1.52 | 91 | 1008.8 |
| 20260506122507 | 8 | 36 | 6.4 | 19.3 | 0.00 | 1.60 | 1.52 | 91 | 1008.8 |
| 20260506122003 | 8 | 72 | 4.8 | 19.3 | 0.00 | 1.60 | 1.52 | 91 | 1008.8 |
| 20260506121514 | 8 | 25 | 8.0 | 19.3 | 0.00 | 1.60 | 1.52 | 91 | 1008.7 |
| 20260506121008 | 8 | 60 | 6.4 | 14.5 | 0.00 | 1.60 | 1.52 | 91 | 1008.7 |
| 20260506120511 | 8 | 9 | 8.0 | 14.5 | 0.00 | 1.60 | 1.52 | 91 | 1008.6 |
| 20260506120022 | 8 | 5 | 4.8 | 12.9 | 0.00 | 1.63 | 1.52 | 91 | 1008.6 |
| 20260506115514 | 8 | 31 | 4.8 | 12.9 | 0.00 | 1.63 | 1.52 | 91 | 1008.5 |
| 20260506115012 | 8 | 36 | 4.8 | 12.9 | 0.00 | 1.63 | 1.52 | 91 | 1008.6 |
| 20260506114518 | 8 | 30 | 6.4 | 14.5 | 0.00 | 1.63 | 1.52 | 91 | 1008.5 |
| 20260506114009 | 8 | 78 | 4.8 | 14.5 | 0.00 | 1.63 | 1.52 | 91 | 1008.5 |
| 20260506113507 | 8 | 30 | 6.4 | 12.9 | 0.00 | 1.63 | 1.52 | 91 | 1008.5 |
| 20260506113014 | 8 | 5 | 4.8 | 17.7 | 0.00 | 1.65 | 1.52 | 91 | 1008.5 |
| 20260506112505 | 8 | 5 | 6.4 | 16.1 | 0.00 | 1.65 | 1.52 | 91 | 1008.4 |
| 20260506112007 | 8 | 22 | 3.2 | 16.1 | 0.00 | 1.65 | 1.52 | 91 | 1008.3 |
| 20260506111518 | 8 | 352 | 4.8 | 12.9 | 0.03 | 1.65 | 1.52 | 91 | 1008.3 |
| 20260506111008 | 8 | 92 | 6.4 | 17.7 | 0.03 | 1.65 | 1.52 | 91 | 1008.3 |
| 20260506110509 | 8 | 27 | 4.8 | 17.7 | 0.03 | 1.65 | 1.52 | 91 | 1008.3 |
| 20260506110018 | 8 | 15 | 8.0 | 16.1 | 0.00 | 1.63 | 1.50 | 91 | 1008.3 |
| 20260506105507 | 8 | 10 | 6.4 | 16.1 | 0.00 | 1.63 | 1.50 | 91 | 1008.2 |
| 20260506104524 | 8 | 61 | 4.8 | 19.3 | 0.03 | 1.63 | 1.50 | 91 | 1008.2 |
| 20260506104010 | 8 | 23 | 8.0 | 16.1 | 0.03 | 1.63 | 1.50 | 91 | 1008.1 |
| 20260506103511 | 8 | 12 | 4.8 | 14.5 | 0.03 | 1.63 | 1.50 | 91 | 1008.1 |
| 20260506103008 | 8 | 318 | 6.4 | 20.9 | 0.03 | 1.63 | 1.50 | 91 | 1008.1 |
| 20260506102507 | 8 | 360 | 8.0 | 20.9 | 0.05 | 1.63 | 1.50 | 91 | 1008.0 |
| 20260506102005 | 8 | 352 | 9.7 | 20.9 | 0.05 | 1.63 | 1.50 | 91 | 1008.0 |
| 20260506101511 | 8 | 45 | 4.8 | 19.3 | 0.03 | 1.60 | 1.50 | 92 | 1008.0 |
| 20260506100514 | 8 | 59 | 4.8 | 14.5 | 0.03 | 1.60 | 1.50 | 92 | 1007.9 |
| 20260506100021 | 8 | 331 | 4.8 | 17.7 | 0.03 | 1.60 | 1.50 | 92 | 1007.9 |
| 20260506095010 | 7 | 5 | 6.4 | 16.1 | 0.03 | 1.60 | 1.50 | 92 | 1007.8 |
| 20260506094527 | 7 | 9 | 4.8 | 17.7 | 0.03 | 1.57 | 1.47 | 92 | 1007.8 |
| 20260506094004 | 7 | 360 | 6.4 | 22.5 | 0.03 | 1.57 | 1.47 | 92 | 1007.8 |
| 20260506093031 | 7 | 340 | 4.8 | 19.3 | 0.03 | 1.57 | 1.47 | 92 | 1007.8 |
| 20260506092510 | 7 | 352 | 6.4 | 16.1 | 0.00 | 1.57 | 1.45 | 92 | 1007.7 |
| 20260506091010 | 7 | 23 | 9.7 | 22.5 | 0.03 | 1.57 | 1.45 | 92 | 1007.6 |
| 20260506090509 | 7 | 21 | 6.4 | 20.9 | 0.03 | 1.57 | 1.45 | 92 | 1007.6 |
| 20260506085511 | 7 | 32 | 11.3 | 19.3 | 0.03 | 1.57 | 1.45 | 92 | 1007.6 |
| 20260506085008 | 7 | 15 | 6.4 | 25.7 | 0.03 | 1.57 | 1.45 | 92 | 1007.6 |
| 20260506084515 | 7 | 41 | 11.3 | 25.7 | 0.00 | 1.55 | 1.42 | 92 | 1007.6 |
| 20260506084008 | 7 | 38 | 4.8 | 19.3 | 0.03 | 1.55 | 1.42 | 92 | 1007.6 |
| 20260506083508 | 7 | 37 | 11.3 | 20.9 | 0.03 | 1.55 | 1.42 | 92 | 1007.5 |
| 20260506083029 | 7 | 350 | 11.3 | 20.9 | 0.03 | 1.55 | 1.42 | 92 | 1007.5 |
| 20260506082513 | 7 | 26 | 8.0 | 22.5 | 0.05 | 1.55 | 1.42 | 92 | 1007.6 |
| 20260506082012 | 7 | 88 | 8.0 | 22.5 | 0.05 | 1.55 | 1.42 | 92 | 1007.5 |
| 20260506081526 | 7 | 13 | 8.0 | 22.5 | 0.05 | 1.55 | 1.42 | 92 | 1007.4 |
| 20260506081007 | 7 | 352 | 14.5 | 22.5 | 0.03 | 1.52 | 1.40 | 93 | 1007.4 |
| 20260506073507 | 7 | 43 | 6.4 | 14.5 | 0.08 | 1.50 | 1.40 | 93 | 1007.2 |
| 20260506073021 | 7 | 87 | 3.2 | 20.9 | 0.08 | 1.50 | 1.40 | 93 | 1007.2 |
| 20260506072512 | 7 | 360 | 6.4 | 20.9 | 0.05 | 1.50 | 1.37 | 93 | 1007.2 |
| 20260506072011 | 7 | 59 | 12.9 | 20.9 | 0.08 | 1.50 | 1.37 | 93 | 1007.1 |
| 20260506071519 | 7 | 30 | 6.4 | 14.5 | 0.08 | 1.50 | 1.37 | 93 | 1007.1 |
| 20260506071007 | 7 | 47 | 4.8 | 17.7 | 0.08 | 1.50 | 1.37 | 93 | 1007.1 |
| 20260506070513 | 7 | 46 | 6.4 | 17.7 | 0.05 | 1.47 | 1.35 | 93 | 1007.1 |
| 20260506062511 | 8 | 30 | 6.4 | 17.7 | 0.08 | 1.45 | 1.30 | 93 | 1006.9 |
| 20260506062013 | 8 | 360 | 6.4 | 17.7 | 0.08 | 1.42 | 1.30 | 93 | 1006.7 |
| 20260506061521 | 8 | 345 | 6.4 | 16.1 | 0.08 | 1.45 | 1.30 | 93 | 1006.7 |
| 20260506061010 | 8 | 47 | 4.8 | 16.1 | 0.10 | 1.45 | 1.30 | 93 | 1006.7 |
| 20260506051008 | 8 | 5 | 6.4 | 11.3 | 0.18 | 1.35 | 1.17 | 93 | 1006.6 |
| 20260506050507 | 8 | 15 | 4.8 | 12.9 | 0.18 | 1.32 | 1.14 | 93 | 1006.5 |
| 20260506045004 | 8 | 333 | 4.8 | 12.9 | 0.18 | 1.30 | 1.12 | 93 | 1006.6 |
| 20260506044512 | 8 | 331 | 8.0 | 16.1 | 0.18 | 1.27 | 1.09 | 93 | 1006.6 |
| 20260506044007 | 8 | 5 | 8.0 | 17.7 | 0.18 | 1.24 | 1.07 | 93 | 1006.6 |
| 20260506043510 | 8 | 328 | 6.4 | 17.7 | 0.18 | 1.24 | 1.07 | 93 | 1006.6 |
| 20260506043010 | 8 | 25 | 6.4 | 17.7 | 0.18 | 1.22 | 1.04 | 93 | 1006.6 |
| 20260506042508 | 8 | 315 | 9.7 | 14.5 | 0.18 | 1.22 | 1.02 | 93 | 1006.7 |
| 20260506042013 | 8 | 350 | 6.4 | 14.5 | 0.15 | 1.19 | 1.02 | 93 | 1006.7 |
| 20260506041519 | 8 | 5 | 8.0 | 17.7 | 0.15 | 1.17 | 0.99 | 93 | 1006.7 |
| 20260506040505 | 8 | 340 | 9.7 | 14.5 | 0.15 | 1.14 | 0.97 | 93 | 1006.7 |
| 20260506040023 | 8 | 352 | 8.0 | 17.7 | 0.13 | 1.12 | 0.94 | 93 | 1006.7 |
| 20260506035504 | 8 | 302 | 9.7 | 17.7 | 0.13 | 1.12 | 0.94 | 93 | 1006.7 |
| 20260506035009 | 8 | 309 | 8.0 | 16.1 | 0.10 | 1.12 | 0.91 | 93 | 1006.7 |
| 20260506034518 | 8 | 352 | 8.0 | 16.1 | 0.13 | 1.12 | 0.91 | 93 | 1006.7 |
| 20260506034005 | 8 | 333 | 6.4 | 16.1 | 0.10 | 1.09 | 0.89 | 93 | 1006.7 |
| 20260506033507 | 8 | 342 | 8.0 | 16.1 | 0.10 | 1.07 | 0.86 | 93 | 1006.8 |
| 20260506033010 | 8 | 360 | 4.8 | 12.9 | 0.13 | 1.07 | 0.86 | 93 | 1006.8 |
| 20260506032506 | 8 | 5 | 8.0 | 14.5 | 0.10 | 1.04 | 0.84 | 93 | 1006.9 |
| 20260506031523 | 8 | 34 | 3.2 | 12.9 | 0.13 | 1.02 | 0.84 | 93 | 1006.8 |
| 20260506031009 | 8 | 360 | 4.8 | 12.9 | 0.13 | 1.02 | 0.84 | 93 | 1006.9 |